Weather History for KFDK - January, 2014

Change the Weather History Date:

Thursday, January 16, 2014

  Actual Average (KHGR) Record (KHGR)
Temperature  
Mean Temperature 32 °F 31 °F  
Max Temperature 39 °F 38 °F 55 °F (2000)
Min Temperature 24 °F 23 °F 4 °F (2009)
Degree Days  
Heating Degree Days 34 34  
Month to date heating degree days 549  
Since 1 July heating degree days 2513  
Cooling Degree Days 0 0  
Month to date cooling degree days 0  
Year to date cooling degree days 0  
Moisture  
Dew Point 24 °F    
Average Humidity 75    
Maximum Humidity 100    
Minimum Humidity 45    
Precipitation  
Precipitation 0.00 in 0.07 in 0.36 in (2013)
Month to date precipitation 1.44  
Year to date precipitation 1.44  
Sea Level Pressure  
Sea Level Pressure 29.99 in    
Wind  
Wind Speed 4 mph (NNW)    
Max Wind Speed 14 mph    
Max Gust Speed 18 mph    
Visibility 10 miles    
Events      
T = Trace of Precipitation, MM = Missing Value Source: NWS Daily Summary

Daily Weather History Graph

Daily Weather History Graph

Search for Another Location

Airport or City:

Trip Planner

Search our weather history database for the weather conditions in past years. The results will help you decide how hot, cold, wet, or windy it might be!

Date:

Astronomy

Jan. 16, 2014 Rise Set
Actual Time 7:27 AM EST 5:11 PM EST
Civil Twilight 6:58 AM EST 5:40 PM EST
Nautical Twilight 6:25 AM EST 6:13 PM EST
Astronomical Twilight 5:52 AM EST 6:45 PM EST
Moon 6:00 PM EST (1/16) 7:20 AM EST (1/16)
Length of Visible Light 10h 42m
Length of Day
9h 43m
Full, 100% of the Moon is Illuminated
Jan 16
Full
Jan 24
Last Quarter
Jan 30
New
Feb 6
First Quarter
Feb 14
Full

Hourly Weather History & Observations

Time (EST) Temp. Windchill Dew Point Humidity Pressure Visibility Wind Dir Wind Speed Gust Speed Precip Events Conditions
12:05 AM 35.6 °F 32.8 °F 32.0 °F 87% 29.99 in 10.0 mi North 3.5 mph - N/A   Overcast
12:25 AM 33.8 °F 30.8 °F 32.0 °F 93% 29.99 in 10.0 mi NNW 3.5 mph - N/A   Overcast
12:45 AM 33.8 °F 25.8 °F 32.0 °F 93% 29.99 in 10.0 mi North 10.4 mph 16.1 mph N/A   Overcast
1:05 AM 35.6 °F 29.9 °F 30.2 °F 81% 30.00 in 10.0 mi NW 6.9 mph - N/A   Overcast
1:25 AM 33.8 °F 27.7 °F 28.4 °F 81% 30.01 in 10.0 mi NW 6.9 mph - N/A   Overcast
1:45 AM 33.8 °F 29.6 °F 28.4 °F 81% 30.01 in 10.0 mi NNW 4.6 mph - N/A   Overcast
2:05 AM 33.8 °F 28.6 °F 28.4 °F 81% 30.01 in 10.0 mi NNW 5.8 mph - N/A   Overcast
2:25 AM 33.8 °F - 28.4 °F 81% 30.02 in 10.0 mi Calm Calm - N/A   Overcast
2:45 AM 33.8 °F 29.6 °F 26.6 °F 75% 30.01 in 10.0 mi North 4.6 mph - N/A   Overcast
3:05 AM 33.8 °F 30.8 °F 26.6 °F 75% 29.99 in 10.0 mi North 3.5 mph - N/A   Overcast
3:25 AM 33.8 °F 30.8 °F 26.6 °F 75% 29.99 in 10.0 mi NNW 3.5 mph - N/A   Overcast
3:45 AM 33.8 °F - 26.6 °F 75% 30.00 in 10.0 mi Calm Calm - N/A   Overcast
4:05 AM 33.8 °F 28.6 °F 26.6 °F 75% 29.99 in 10.0 mi NNW 5.8 mph - N/A   Overcast
4:25 AM 33.8 °F 27.7 °F 26.6 °F 75% 29.99 in 10.0 mi NNW 6.9 mph - N/A   Overcast
4:45 AM 33.8 °F 27.7 °F 24.8 °F 70% 30.00 in 10.0 mi NW 6.9 mph - N/A   Overcast
5:10 AM 33.8 °F 27.7 °F 23.0 °F 65% 30.00 in 10.0 mi NNW 6.9 mph - N/A   Overcast
5:30 AM 33.8 °F 24.3 °F 23.0 °F 65% 30.00 in 10.0 mi NNW 13.8 mph 18.4 mph N/A   Overcast
5:40 AM 33.8 °F 25.3 °F 21.2 °F 60% 30.01 in 10.0 mi NNW 11.5 mph - N/A   Overcast
6:50 AM 32.0 °F 24.8 °F 19.4 °F 60% 30.00 in 10.0 mi NNW 8.1 mph - N/A   Mostly Cloudy
7:45 AM 30.2 °F 24.3 °F 21.2 °F 69% 30.02 in 10.0 mi WNW 5.8 mph - N/A   Mostly Cloudy
8:59 AM 32.0 °F 28.7 °F 17.6 °F 55% 30.06 in 10.0 mi NNW 3.5 mph - N/A   Scattered Clouds
9:50 AM 33.8 °F 29.6 °F 19.4 °F 56% 30.06 in 10.0 mi NNW 4.6 mph - N/A   Clear
10:47 AM 35.6 °F 28.6 °F 19.4 °F 52% 30.04 in 10.0 mi NNW 9.2 mph - N/A   Clear
11:50 AM 37.4 °F 32.1 °F 19.4 °F 48% 30.00 in 10.0 mi North 6.9 mph - N/A   Clear
12:45 PM 37.4 °F 34.9 °F 19.4 °F 48% 29.97 in 10.0 mi Variable 3.5 mph - N/A   Clear
1:55 PM 39.2 °F 35.0 °F 19.4 °F 45% 29.93 in 10.0 mi WNW 5.8 mph - N/A   Clear
2:50 PM 39.2 °F 35.9 °F 21.2 °F 49% 29.92 in 10.0 mi NW 4.6 mph - N/A   Clear
3:45 PM 37.4 °F 32.1 °F 19.4 °F 48% 29.92 in 10.0 mi WNW 6.9 mph - N/A   Clear
4:49 PM 35.6 °F 31.7 °F 21.2 °F 56% 29.93 in 10.0 mi WSW 4.6 mph - N/A   Clear
5:45 PM 32.0 °F - 21.2 °F 64% 29.95 in 10.0 mi Calm Calm - N/A   Clear
6:50 PM 30.2 °F 26.7 °F 24.8 °F 80% 29.96 in 10.0 mi SE 3.5 mph - N/A   Clear
7:50 PM 28.4 °F - 23.0 °F 80% 29.98 in 10.0 mi Calm Calm - N/A   Clear
8:10 PM 28.4 °F - 24.8 °F 86% 29.98 in 10.0 mi Calm Calm - N/A   Clear
8:30 PM 28.4 °F - 24.8 °F 86% 29.98 in 10.0 mi Calm Calm - N/A   Clear
8:50 PM 26.6 °F - 23.0 °F 86% 29.99 in 10.0 mi Calm Calm - N/A   Clear
9:10 PM 26.6 °F - 23.0 °F 86% 29.99 in 10.0 mi Calm Calm - N/A   Clear
9:30 PM 26.6 °F - 24.8 °F 93% 29.99 in 10.0 mi Calm Calm - N/A   Clear
9:50 PM 24.8 °F - 23.0 °F 93% 29.99 in 10.0 mi Calm Calm - N/A   Clear
10:10 PM 26.6 °F - 24.8 °F 93% 29.98 in 10.0 mi Calm Calm - N/A   Clear
10:30 PM 26.6 °F - 23.0 °F 86% 29.99 in 10.0 mi Calm Calm - N/A   Clear
10:50 PM 26.6 °F - 26.6 °F 100% 29.98 in 10.0 mi Calm Calm - N/A   Clear
11:10 PM 26.6 °F - 26.6 °F 100% 29.97 in 10.0 mi Calm Calm - N/A   Scattered Clouds
11:30 PM 24.8 °F - 24.8 °F 100% 29.97 in 10.0 mi Calm Calm - N/A   Mostly Cloudy
11:50 PM 24.8 °F - 24.8 °F 100% 29.98 in 10.0 mi Calm Calm - N/A   Mostly Cloudy